AAL2 HEAT-OOMS

Flight info

Callsign AAL2
Flight time 3h 8m
Altitude 35000
Route ASPEK1A ASPEK NABED V608 HGD M872 PMA Y511 ITRUX BOSOB SB09I MIDGU M717 PUTSO N685 LAKLU
Aircraft A320/M-SDE3FGHIRWY/LB1

Departure

Time 2026-04-20 09:25
Airport Asyut International Airport (HEAT)

Arrival

Time 2026-04-20 12:33
Airport Muscat International Airport (OOMS)
Time Latitude Longitude Altitude Speed Heading
2026-04-20 09:04 27.05021 31.01505 763 ft 0 kts 40°
2026-04-20 09:14 27.05012 31.01497 763 ft 4 kts 43°
2026-04-20 09:14 27.04995 31.01475 763 ft 4 kts 60°
2026-04-20 09:14 27.04987 31.01449 763 ft 4 kts 101°
2026-04-20 09:15 27.04992 31.01433 763 ft 1 kts 130°
2026-04-20 09:15 27.04994 31.01431 763 ft 0 kts 130°
2026-04-20 09:17 27.04993 31.01433 763 ft 0 kts 130°
2026-04-20 09:17 27.04989 31.01438 763 ft 1 kts 130°
2026-04-20 09:17 27.04982 31.01448 763 ft 2 kts 130°
2026-04-20 09:18 27.04972 31.01461 763 ft 2 kts 130°
2026-04-20 09:18 27.04960 31.01476 763 ft 3 kts 130°
2026-04-20 09:18 27.04946 31.01495 764 ft 3 kts 130°
2026-04-20 09:18 27.04930 31.01517 764 ft 4 kts 130°
2026-04-20 09:19 27.04911 31.01543 764 ft 5 kts 131°
2026-04-20 09:19 27.04876 31.01537 765 ft 6 kts 221°
2026-04-20 09:19 27.04842 31.01503 764 ft 7 kts 221°
2026-04-20 09:19 27.04803 31.01464 764 ft 8 kts 221°
2026-04-20 09:20 27.04754 31.01439 765 ft 8 kts 170°
2026-04-20 09:20 27.04718 31.01485 765 ft 8 kts 127°
2026-04-20 09:20 27.04683 31.01533 766 ft 8 kts 129°
2026-04-20 09:20 27.04646 31.01582 767 ft 8 kts 129°
2026-04-20 09:21 27.04605 31.01638 768 ft 12 kts 132°
2026-04-20 09:21 27.04558 31.01697 768 ft 18 kts 131°
2026-04-20 09:21 27.04465 31.01823 770 ft 22 kts 129°
2026-04-20 09:21 27.04368 31.01950 772 ft 20 kts 130°
2026-04-20 09:22 27.04289 31.02052 774 ft 17 kts 130°
2026-04-20 09:22 27.04213 31.02152 775 ft 17 kts 130°
2026-04-20 09:22 27.04138 31.02250 777 ft 16 kts 130°
2026-04-20 09:22 27.04069 31.02351 778 ft 16 kts 129°
2026-04-20 09:23 27.03998 31.02447 780 ft 16 kts 129°
2026-04-20 09:23 27.03932 31.02483 780 ft 11 kts 193°
2026-04-20 09:23 27.03869 31.02438 781 ft 11 kts 216°
2026-04-20 09:23 27.03808 31.02379 781 ft 12 kts 222°
2026-04-20 09:24 27.03811 31.02318 783 ft 10 kts 311°
2026-04-20 09:24 27.03895 31.02208 781 ft 42 kts 310°
2026-04-20 09:24 27.04231 31.01758 772 ft 105 kts 309°
2026-04-20 09:24 27.04815 31.00982 762 ft 153 kts 309°
2026-04-20 09:25 27.05521 30.99997 1173 ft 163 kts 311°
2026-04-20 09:25 27.06248 30.99007 1835 ft 164 kts 312°
2026-04-20 09:25 27.06982 30.98032 2532 ft 164 kts 313°
2026-04-20 09:25 27.07757 30.97006 2859 ft 183 kts 311°
2026-04-20 09:26 27.08630 30.95847 3190 ft 204 kts 312°
2026-04-20 09:26 27.09591 30.94571 3612 ft 223 kts 312°
2026-04-20 09:26 27.10685 30.93299 4218 ft 231 kts 328°
2026-04-20 09:26 27.12268 30.92808 4622 ft 249 kts
2026-04-20 09:27 27.13876 30.93575 5266 ft 262 kts 39°
2026-04-20 09:27 27.15035 30.95211 5954 ft 274 kts 56°
2026-04-20 09:27 27.15939 30.97132 6653 ft 281 kts 60°
2026-04-20 09:27 27.16790 30.99128 7336 ft 285 kts 61°
2026-04-20 09:28 27.17687 31.01138 7973 ft 291 kts 59°
2026-04-20 09:28 27.18661 31.03154 8623 ft 296 kts 57°
2026-04-20 09:28 27.19700 31.05167 9278 ft 301 kts 56°
2026-04-20 09:28 27.20796 31.07192 9921 ft 306 kts 55°
2026-04-20 09:29 27.21924 31.09264 10312 ft 321 kts 59°
2026-04-20 09:29 27.22818 31.11662 10443 ft 345 kts 72°
2026-04-20 09:29 27.23230 31.14386 10728 ft 361 kts 87°
2026-04-20 09:29 27.23063 31.17178 11238 ft 367 kts 101°
2026-04-20 09:30 27.22333 31.19937 11831 ft 370 kts 111°
2026-04-20 09:30 27.21447 31.22660 12444 ft 373 kts 111°
2026-04-20 09:30 27.20558 31.25413 13026 ft 377 kts 111°
2026-04-20 09:30 27.19663 31.28198 13611 ft 380 kts 111°
2026-04-20 09:31 27.18762 31.31002 14140 ft 384 kts 111°
2026-04-20 09:31 27.17852 31.33832 14634 ft 387 kts 111°
2026-04-20 09:31 27.16933 31.36687 15127 ft 390 kts 111°
2026-04-20 09:31 27.16005 31.39564 15611 ft 394 kts 111°
2026-04-20 09:32 27.15066 31.42466 16095 ft 397 kts 111°
2026-04-20 09:32 27.14201 31.45431 16570 ft 402 kts 104°
2026-04-20 09:32 27.13778 31.48548 17049 ft 407 kts 93°
2026-04-20 09:32 27.13867 31.51727 17526 ft 410 kts 82°
2026-04-20 09:33 27.14437 31.54877 17976 ft 413 kts 75°
2026-04-20 09:33 27.15120 31.58031 18435 ft 417 kts 75°
2026-04-20 09:33 27.15804 31.61214 18851 ft 421 kts 75°
2026-04-20 09:33 27.16492 31.64429 19272 ft 426 kts 75°
2026-04-20 09:34 27.17187 31.67677 19687 ft 430 kts 75°
2026-04-20 09:34 27.17888 31.70958 20117 ft 434 kts 75°
2026-04-20 09:34 27.19304 31.77619 20934 ft 443 kts 75°
2026-04-20 09:35 27.20020 31.80994 21328 ft 447 kts 75°
2026-04-20 09:35 27.20744 31.84410 21711 ft 451 kts 75°
2026-04-20 09:35 27.21473 31.87856 22094 ft 455 kts 75°
2026-04-20 09:35 27.22200 31.91289 22483 ft 459 kts 75°
2026-04-20 09:36 27.22946 31.94798 22859 ft 463 kts 75°
2026-04-20 09:36 27.23695 31.98334 23243 ft 467 kts 75°
2026-04-20 09:36 27.24449 32.01899 23608 ft 471 kts 75°
2026-04-20 09:36 27.25208 32.05491 23917 ft 474 kts 75°
2026-04-20 09:37 27.25971 32.09109 24210 ft 477 kts 75°
2026-04-20 09:37 27.26736 32.12754 24500 ft 481 kts 75°
2026-04-20 09:37 27.27506 32.16426 24792 ft 484 kts 75°
2026-04-20 09:37 27.28282 32.20122 25084 ft 487 kts 75°
2026-04-20 09:38 27.29062 32.23846 25376 ft 490 kts 75°
2026-04-20 09:38 27.29660 32.27629 25657 ft 494 kts 84°
2026-04-20 09:38 27.29781 32.31509 25938 ft 497 kts 93°
2026-04-20 09:38 27.29510 32.35392 26218 ft 500 kts 96°
2026-04-20 09:39 27.29204 32.39293 26492 ft 502 kts 96°
2026-04-20 09:39 27.28899 32.43217 26770 ft 505 kts 96°
2026-04-20 09:39 27.28593 32.47161 27046 ft 508 kts 96°
2026-04-20 09:39 27.28289 32.51132 27301 ft 511 kts 96°
2026-04-20 09:40 27.27987 32.55071 27554 ft 514 kts 96°
2026-04-20 09:40 27.27676 32.59128 27839 ft 516 kts 96°
2026-04-20 09:40 27.27366 32.63157 28085 ft 519 kts 96°
2026-04-20 09:40 27.27050 32.67206 28346 ft 521 kts 97°
2026-04-20 09:41 27.26729 32.71280 28602 ft 524 kts 97°
2026-04-20 09:41 27.26407 32.75358 28965 ft 524 kts 97°
2026-04-20 09:41 27.26086 32.79439 29343 ft 524 kts 97°
2026-04-20 09:41 27.25764 32.83517 29719 ft 525 kts 97°
2026-04-20 09:42 27.25441 32.87607 30111 ft 525 kts 97°
2026-04-20 09:42 27.25114 32.91689 30417 ft 525 kts 97°
2026-04-20 09:42 27.24782 32.95777 30724 ft 526 kts 97°
2026-04-20 09:42 27.24450 32.99872 31001 ft 527 kts 97°
2026-04-20 09:43 27.24116 33.03969 31287 ft 527 kts 97°
2026-04-20 09:43 27.23785 33.08028 31569 ft 529 kts 97°
2026-04-20 09:43 27.23451 33.12145 31849 ft 530 kts 97°
2026-04-20 09:43 27.23119 33.16269 32112 ft 530 kts 97°
2026-04-20 09:44 27.22783 33.20404 32373 ft 532 kts 97°
2026-04-20 09:44 27.22440 33.24560 32647 ft 534 kts 98°
2026-04-20 09:44 27.22094 33.28716 32934 ft 535 kts 98°
2026-04-20 09:44 27.21750 33.32890 33175 ft 537 kts 97°
2026-04-20 09:45 27.21403 33.37074 33415 ft 538 kts 98°
2026-04-20 09:45 27.21053 33.41265 33695 ft 538 kts 98°
2026-04-20 09:45 27.20700 33.45457 33964 ft 539 kts 98°
2026-04-20 09:45 27.20345 33.49645 34172 ft 540 kts 98°
2026-04-20 09:46 27.19988 33.53850 34354 ft 541 kts 98°
2026-04-20 09:46 27.19630 33.58055 34534 ft 542 kts 98°
2026-04-20 09:46 27.19269 33.62272 34719 ft 543 kts 98°
2026-04-20 09:46 27.18906 33.66497 34879 ft 544 kts 98°
2026-04-20 09:47 27.18167 33.75013 34950 ft 553 kts 99°
2026-04-20 09:47 27.16454 33.83360 34947 ft 544 kts 117°
2026-04-20 09:48 27.13633 33.91290 34948 ft 553 kts 118°
2026-04-20 09:48 27.10747 33.99370 34950 ft 563 kts 118°
2026-04-20 09:49 27.07825 34.07572 34944 ft 567 kts 118°
2026-04-20 09:49 27.04897 34.15799 34943 ft 568 kts 118°
2026-04-20 09:50 27.01959 34.24020 34937 ft 568 kts 118°
2026-04-20 09:50 26.99004 34.32240 34946 ft 569 kts 118°
2026-04-20 09:51 26.96038 34.40464 34948 ft 569 kts 118°
2026-04-20 09:51 26.93075 34.48689 34932 ft 569 kts 119°
2026-04-20 09:52 26.90125 34.56868 34945 ft 570 kts 119°
2026-04-20 09:52 26.87151 34.65090 34952 ft 570 kts 119°
2026-04-20 09:53 26.84163 34.73315 34953 ft 570 kts 119°
2026-04-20 09:53 26.81168 34.81532 34948 ft 570 kts 119°
2026-04-20 09:54 26.78173 34.89741 34947 ft 570 kts 119°
2026-04-20 09:54 26.75178 34.97962 34948 ft 570 kts 119°
2026-04-20 09:55 26.72179 35.06183 34929 ft 571 kts 119°
2026-04-20 09:55 26.69168 35.14408 34943 ft 572 kts 120°
2026-04-20 09:56 26.66143 35.22636 34942 ft 572 kts 120°
2026-04-20 09:56 26.63113 35.30855 34920 ft 572 kts 120°
2026-04-20 09:57 26.60075 35.39084 34924 ft 573 kts 120°
2026-04-20 09:57 26.57037 35.47314 34929 ft 573 kts 120°
2026-04-20 09:58 26.53967 35.55534 34913 ft 573 kts 120°
2026-04-20 09:58 26.50827 35.63716 34921 ft 573 kts 121°
2026-04-20 09:59 26.47663 35.71888 34920 ft 574 kts 121°
2026-04-20 09:59 26.44512 35.80080 34868 ft 575 kts 121°
2026-04-20 10:00 26.41360 35.88297 34874 ft 577 kts 121°
2026-04-20 10:00 26.38204 35.96535 34884 ft 578 kts 121°
2026-04-20 10:01 26.35052 36.04730 34897 ft 579 kts 121°
2026-04-20 10:01 26.31865 36.12980 34904 ft 579 kts 121°
2026-04-20 10:02 26.28666 36.21228 34909 ft 579 kts 121°
2026-04-20 10:02 26.25467 36.29471 34904 ft 580 kts 121°
2026-04-20 10:03 26.22261 36.37708 34910 ft 580 kts 121°
2026-04-20 10:03 26.19048 36.45955 34914 ft 580 kts 121°
2026-04-20 10:04 26.16084 36.52589 34913 ft 573 kts 127°
2026-04-20 10:04 26.12251 36.60362 34901 ft 573 kts 127°
2026-04-20 10:05 26.08416 36.68133 34902 ft 573 kts 127°
2026-04-20 10:05 26.04576 36.75908 34885 ft 573 kts 127°
2026-04-20 10:06 26.00732 36.83676 34891 ft 573 kts 127°
2026-04-20 10:06 25.96884 36.91439 34898 ft 573 kts 127°
2026-04-20 10:07 25.93034 36.99202 34895 ft 574 kts 127°
2026-04-20 10:07 25.89174 37.06965 34887 ft 574 kts 127°
2026-04-20 10:08 25.85312 37.14723 34883 ft 574 kts 127°
2026-04-20 10:08 25.81446 37.22476 34883 ft 574 kts 127°
2026-04-20 10:09 25.77574 37.30224 34880 ft 574 kts 127°
2026-04-20 10:09 25.73713 37.37989 34847 ft 575 kts 127°
2026-04-20 10:10 25.69859 37.45758 34893 ft 575 kts 127°
2026-04-20 10:10 25.65988 37.53508 34899 ft 574 kts 127°
2026-04-20 10:11 25.62097 37.61249 34911 ft 575 kts 127°
2026-04-20 10:11 25.58208 37.68990 34901 ft 575 kts 127°
2026-04-20 10:12 25.54326 37.76735 34889 ft 575 kts 127°
2026-04-20 10:12 25.50465 37.84423 34892 ft 575 kts 127°
2026-04-20 10:13 25.46567 37.92152 34881 ft 575 kts 127°
2026-04-20 10:13 25.42676 37.99869 34870 ft 574 kts 127°
2026-04-20 10:14 25.38778 38.07582 34869 ft 574 kts 127°
2026-04-20 10:14 25.34876 38.15284 34876 ft 573 kts 127°
2026-04-20 10:15 25.30980 38.22967 34858 ft 573 kts 126°
2026-04-20 10:15 25.27082 38.30646 34875 ft 573 kts 127°
2026-04-20 10:16 25.23179 38.38309 34885 ft 572 kts 127°
2026-04-20 10:16 25.19276 38.45969 34887 ft 572 kts 127°
2026-04-20 10:17 25.15365 38.53620 34894 ft 572 kts 127°
2026-04-20 10:17 25.11454 38.61254 34885 ft 572 kts 127°
2026-04-20 10:18 25.07541 38.68888 34876 ft 571 kts 126°
2026-04-20 10:18 25.03618 38.76508 34900 ft 571 kts 126°
2026-04-20 10:19 24.99700 38.84122 34913 ft 571 kts 126°
2026-04-20 10:19 24.95778 38.91736 34907 ft 571 kts 126°
2026-04-20 10:20 24.91857 38.99325 34933 ft 570 kts 126°
2026-04-20 10:20 24.87932 39.06899 34934 ft 569 kts 126°
2026-04-20 10:21 24.84012 39.14463 34936 ft 568 kts 126°
2026-04-20 10:21 24.80114 39.21962 34943 ft 567 kts 126°
2026-04-20 10:22 24.76197 39.29490 34946 ft 566 kts 126°
2026-04-20 10:22 24.72276 39.37011 34953 ft 566 kts 126°
2026-04-20 10:23 24.68362 39.44514 34953 ft 565 kts 126°
2026-04-20 10:23 24.64451 39.52006 34958 ft 565 kts 126°
2026-04-20 10:24 24.60531 39.59487 34941 ft 564 kts 126°
2026-04-20 10:24 24.56614 39.66969 34946 ft 565 kts 126°
2026-04-20 10:25 24.52744 39.74477 34948 ft 566 kts 124°
2026-04-20 10:25 24.49107 39.82159 34934 ft 568 kts 122°
2026-04-20 10:26 24.45561 39.89901 34952 ft 567 kts 122°
2026-04-20 10:26 24.41964 39.97594 34961 ft 566 kts 123°
2026-04-20 10:27 24.38304 40.05235 34960 ft 565 kts 123°
2026-04-20 10:27 24.34636 40.12872 34971 ft 566 kts 123°
2026-04-20 10:28 24.30983 40.20513 34972 ft 566 kts 123°
2026-04-20 10:28 24.27343 40.28160 34965 ft 566 kts 123°
2026-04-20 10:29 24.23694 40.35802 34977 ft 565 kts 123°
2026-04-20 10:29 24.20038 40.43429 34981 ft 565 kts 123°
2026-04-20 10:30 24.16448 40.51095 34965 ft 568 kts 117°
2026-04-20 10:30 24.13971 40.59360 34985 ft 572 kts 110°
2026-04-20 10:31 24.11667 40.67693 34995 ft 572 kts 110°
2026-04-20 10:31 24.09340 40.76013 34994 ft 571 kts 110°
2026-04-20 10:32 24.07028 40.84278 34999 ft 571 kts 110°
2026-04-20 10:32 24.04689 40.92585 35001 ft 571 kts 110°
2026-04-20 10:33 24.02351 41.00887 35007 ft 571 kts 110°
2026-04-20 10:33 24.00020 41.09192 35009 ft 571 kts 110°
2026-04-20 10:34 23.97693 41.17483 34996 ft 570 kts 110°
2026-04-20 10:35 23.94180 41.29907 35020 ft 569 kts 110°
2026-04-20 10:35 23.91822 41.38161 35010 ft 568 kts 110°
2026-04-20 10:36 23.89483 41.46404 35030 ft 567 kts 110°
2026-04-20 10:36 23.87153 41.54636 35034 ft 567 kts 110°
2026-04-20 10:37 23.84819 41.62849 35028 ft 565 kts 110°
2026-04-20 10:37 23.82465 41.71037 35038 ft 564 kts 110°
2026-04-20 10:38 23.80101 41.79205 35027 ft 563 kts 110°
2026-04-20 10:38 23.77746 41.87344 35039 ft 562 kts 110°
2026-04-20 10:39 23.75402 41.95470 35039 ft 561 kts 110°
2026-04-20 10:39 23.73063 42.03586 35039 ft 560 kts 110°
2026-04-20 10:40 23.70731 42.11680 35038 ft 559 kts 110°
2026-04-20 10:40 23.68400 42.19756 35030 ft 558 kts 110°
2026-04-20 10:41 23.66062 42.27823 35030 ft 557 kts 110°
2026-04-20 10:41 23.63730 42.35824 35027 ft 557 kts 110°
2026-04-20 10:42 23.61368 42.43869 35014 ft 557 kts 110°
2026-04-20 10:42 23.59009 42.51920 35020 ft 557 kts 110°
2026-04-20 10:43 23.56655 42.59963 35020 ft 557 kts 110°
2026-04-20 10:43 23.54293 42.68009 35010 ft 557 kts 110°
2026-04-20 10:44 23.51914 42.76056 35017 ft 558 kts 110°
2026-04-20 10:44 23.49533 42.84101 35019 ft 558 kts 110°
2026-04-20 10:45 23.47157 42.92153 35020 ft 558 kts 110°
2026-04-20 10:45 23.45185 42.98845 35021 ft 558 kts 110°
2026-04-20 10:46 23.42809 43.06885 35015 ft 558 kts 110°
2026-04-20 10:46 23.40420 43.14923 35007 ft 558 kts 110°
2026-04-20 10:47 23.38026 43.22952 35006 ft 558 kts 110°
2026-04-20 10:47 23.35623 43.30987 34987 ft 558 kts 110°
2026-04-20 10:48 23.33217 43.39013 34976 ft 558 kts 110°
2026-04-20 10:48 23.30799 43.47048 34959 ft 559 kts 110°
2026-04-20 10:49 23.28379 43.55079 34947 ft 559 kts 110°
2026-04-20 10:49 23.25957 43.63128 34934 ft 559 kts 110°
2026-04-20 10:50 23.23550 43.71114 34922 ft 559 kts 110°
2026-04-20 10:50 23.21119 43.79151 34914 ft 559 kts 110°
2026-04-20 10:51 23.18677 43.87176 34894 ft 559 kts 110°
2026-04-20 10:51 23.16232 43.95203 34895 ft 559 kts 110°
2026-04-20 10:52 23.13791 44.03227 34869 ft 559 kts 110°
2026-04-20 10:52 23.11352 44.11242 34871 ft 559 kts 110°
2026-04-20 10:53 23.08903 44.19255 34866 ft 558 kts 110°
2026-04-20 10:53 23.06457 44.27251 34870 ft 558 kts 110°
2026-04-20 10:54 23.04006 44.35249 34862 ft 558 kts 110°
2026-04-20 10:54 23.01549 44.43234 34849 ft 557 kts 110°
2026-04-20 10:55 22.99091 44.51218 34852 ft 557 kts 110°
2026-04-20 10:55 22.96624 44.59191 34850 ft 557 kts 110°
2026-04-20 10:56 22.94388 44.67173 34840 ft 557 kts 101°
2026-04-20 10:56 22.93651 44.75574 34843 ft 556 kts 93°
2026-04-20 10:57 22.93128 44.83875 34838 ft 555 kts 93°
2026-04-20 10:57 22.92575 44.92238 34833 ft 555 kts 93°
2026-04-20 10:58 22.92023 45.00593 34840 ft 555 kts 93°
2026-04-20 10:58 22.91472 45.08937 34831 ft 555 kts 93°
2026-04-20 10:59 22.90918 45.17287 34828 ft 555 kts 94°
2026-04-20 10:59 22.90355 45.25639 34840 ft 555 kts 94°
2026-04-20 11:00 22.89789 45.33993 34827 ft 556 kts 94°
2026-04-20 11:00 22.89227 45.42356 34834 ft 556 kts 93°
2026-04-20 11:01 22.88658 45.50724 34822 ft 556 kts 93°
2026-04-20 11:01 22.88079 45.59091 34831 ft 557 kts 93°
2026-04-20 11:02 22.87489 45.67463 34830 ft 557 kts 93°
2026-04-20 11:02 22.86898 45.75834 34826 ft 557 kts 93°
2026-04-20 11:03 22.86311 45.84201 34833 ft 556 kts 94°
2026-04-20 11:03 22.85715 45.92554 34838 ft 556 kts 94°
2026-04-20 11:04 22.85118 46.00848 34833 ft 555 kts 94°
2026-04-20 11:04 22.84512 46.09191 34845 ft 555 kts 94°
2026-04-20 11:05 22.83903 46.17543 34862 ft 554 kts 94°
2026-04-20 11:05 22.83292 46.25871 34863 ft 555 kts 94°
2026-04-20 11:06 22.82670 46.34210 34864 ft 555 kts 94°
2026-04-20 11:06 22.82046 46.42538 34857 ft 555 kts 94°
2026-04-20 11:07 22.81419 46.50872 34845 ft 555 kts 94°
2026-04-20 11:07 22.80791 46.59204 34860 ft 554 kts 93°
2026-04-20 11:08 22.80159 46.67522 34854 ft 554 kts 94°
2026-04-20 11:08 22.79512 46.75845 34854 ft 554 kts 94°
2026-04-20 11:09 22.78868 46.84165 34843 ft 554 kts 94°
2026-04-20 11:09 22.78225 46.92475 34843 ft 554 kts 94°
2026-04-20 11:10 22.77578 47.00732 34846 ft 554 kts 94°
2026-04-20 11:10 22.76919 47.09049 34822 ft 554 kts 94°
2026-04-20 11:11 22.76242 47.17353 34825 ft 553 kts 94°
2026-04-20 11:11 22.75582 47.25665 34826 ft 553 kts 93°
2026-04-20 11:12 22.74931 47.33973 34815 ft 553 kts 94°
2026-04-20 11:12 22.74261 47.42277 34819 ft 553 kts 94°
2026-04-20 11:13 22.73577 47.50566 34812 ft 552 kts 94°
2026-04-20 11:13 22.72901 47.58855 34800 ft 552 kts 94°
2026-04-20 11:14 22.72238 47.67139 34791 ft 552 kts 94°
2026-04-20 11:14 22.71561 47.75362 34796 ft 551 kts 94°
2026-04-20 11:15 22.70868 47.83624 34792 ft 551 kts 94°
2026-04-20 11:15 22.70171 47.91884 34790 ft 551 kts 94°
2026-04-20 11:16 22.69481 48.00136 34788 ft 550 kts 94°
2026-04-20 11:16 22.68890 48.08402 34786 ft 550 kts 90°
2026-04-20 11:17 22.68786 48.16671 34782 ft 549 kts 87°
2026-04-20 11:17 22.68841 48.24933 34791 ft 549 kts 88°
2026-04-20 11:18 22.68775 48.33217 34772 ft 550 kts 89°
2026-04-20 11:18 22.68606 48.41492 34780 ft 550 kts 89°
2026-04-20 11:19 22.68424 48.49710 34788 ft 549 kts 89°
2026-04-20 11:19 22.68268 48.57987 34787 ft 549 kts 89°
2026-04-20 11:20 22.68135 48.66246 34789 ft 549 kts 89°
2026-04-20 11:20 22.67982 48.74506 34789 ft 548 kts 89°
2026-04-20 11:21 22.67818 48.82756 34785 ft 548 kts 89°
2026-04-20 11:21 22.67653 48.91010 34783 ft 548 kts 89°
2026-04-20 11:22 22.67490 48.99262 34781 ft 548 kts 89°
2026-04-20 11:22 22.67326 49.07516 34774 ft 548 kts 89°
2026-04-20 11:23 22.67152 49.15765 34788 ft 548 kts 89°
2026-04-20 11:23 22.66969 49.24012 34786 ft 548 kts 89°
2026-04-20 11:24 22.66783 49.32246 34785 ft 547 kts 89°
2026-04-20 11:24 22.66603 49.40487 34787 ft 547 kts 89°
2026-04-20 11:25 22.66410 49.48716 34786 ft 547 kts 89°
2026-04-20 11:25 22.66200 49.56947 34789 ft 546 kts 89°
2026-04-20 11:26 22.65996 49.65170 34785 ft 546 kts 89°
2026-04-20 11:26 22.65797 49.73386 34785 ft 546 kts 89°
2026-04-20 11:27 22.65594 49.81615 34781 ft 545 kts 89°
2026-04-20 11:27 22.65387 49.89815 34788 ft 544 kts 89°
2026-04-20 11:28 22.65175 49.97962 34791 ft 544 kts 89°
2026-04-20 11:28 22.64942 50.06152 34788 ft 544 kts 89°
2026-04-20 11:29 22.64706 50.14326 34788 ft 543 kts 89°
2026-04-20 11:29 22.64486 50.22508 34790 ft 543 kts 89°
2026-04-20 11:30 22.64267 50.30669 34787 ft 542 kts 89°
2026-04-20 11:30 22.64030 50.38832 34784 ft 542 kts 89°
2026-04-20 11:31 22.63831 50.45607 34789 ft 542 kts 89°
2026-04-20 11:31 22.63583 50.53756 34784 ft 541 kts 89°
2026-04-20 11:32 22.63329 50.61909 34776 ft 541 kts 89°
2026-04-20 11:32 22.63074 50.70050 34785 ft 541 kts 89°
2026-04-20 11:33 22.62825 50.78191 34781 ft 541 kts 89°
2026-04-20 11:33 22.62571 50.86342 34771 ft 541 kts 89°
2026-04-20 11:34 22.62311 50.94486 34787 ft 541 kts 89°
2026-04-20 11:34 22.62040 51.02629 34785 ft 541 kts 89°
2026-04-20 11:35 22.61758 51.10772 34782 ft 541 kts 89°
2026-04-20 11:35 22.61479 51.18866 34788 ft 541 kts 89°
2026-04-20 11:36 22.61199 51.27012 34786 ft 542 kts 89°
2026-04-20 11:36 22.60919 51.35164 34789 ft 542 kts 89°
2026-04-20 11:37 22.60635 51.43313 34787 ft 542 kts 89°
2026-04-20 11:37 22.60189 51.55543 34788 ft 542 kts 89°
2026-04-20 11:38 22.59894 51.63697 34797 ft 542 kts 89°
2026-04-20 11:38 22.59593 51.71838 34793 ft 542 kts 89°
2026-04-20 11:39 22.59288 51.79988 34782 ft 542 kts 89°
2026-04-20 11:39 22.58974 51.88128 34786 ft 542 kts 89°
2026-04-20 11:40 22.58652 51.96270 34789 ft 542 kts 89°
2026-04-20 11:40 22.58336 52.04417 34785 ft 542 kts 89°
2026-04-20 11:41 22.58019 52.12559 34787 ft 541 kts 89°
2026-04-20 11:41 22.57691 52.20700 34783 ft 542 kts 89°
2026-04-20 11:42 22.57357 52.28847 34778 ft 542 kts 89°
2026-04-20 11:42 22.57027 52.36936 34783 ft 541 kts 89°
2026-04-20 11:43 22.56684 52.45067 34785 ft 541 kts 89°
2026-04-20 11:43 22.56334 52.53065 34773 ft 521 kts 89°
2026-04-20 11:44 22.56000 52.60822 34778 ft 514 kts 88°
2026-04-20 11:44 22.55673 52.68542 34775 ft 513 kts 88°
2026-04-20 11:45 22.55343 52.76253 34772 ft 513 kts 88°
2026-04-20 11:45 22.54997 52.83953 34775 ft 511 kts 89°
2026-04-20 11:46 22.54650 52.91636 34781 ft 511 kts 88°
2026-04-20 11:46 22.54305 52.99316 34772 ft 512 kts 88°
2026-04-20 11:47 22.53954 53.07003 34792 ft 511 kts 88°
2026-04-20 11:47 22.53601 53.14692 34794 ft 511 kts 88°
2026-04-20 11:48 22.53240 53.22374 34797 ft 511 kts 88°
2026-04-20 11:48 22.52879 53.30049 34804 ft 510 kts 88°
2026-04-20 11:49 22.52514 53.37704 34804 ft 509 kts 88°
2026-04-20 11:49 22.52140 53.45351 34804 ft 509 kts 89°
2026-04-20 11:50 22.51769 53.52995 34805 ft 508 kts 88°
2026-04-20 11:50 22.51404 53.60624 34803 ft 508 kts 88°
2026-04-20 11:51 22.51032 53.68248 34798 ft 508 kts 89°
2026-04-20 11:51 22.50651 53.75874 34807 ft 508 kts 88°
2026-04-20 11:52 22.50325 53.83499 34799 ft 506 kts 87°
2026-04-20 11:52 22.50133 53.91100 34795 ft 505 kts 86°
2026-04-20 11:53 22.49953 53.98698 34798 ft 505 kts 86°
2026-04-20 11:53 22.49730 54.06303 34795 ft 506 kts 87°
2026-04-20 11:54 22.49486 54.13856 34799 ft 505 kts 87°
2026-04-20 11:54 22.49250 54.21443 34802 ft 505 kts 87°
2026-04-20 11:55 22.49012 54.29029 34809 ft 504 kts 87°
2026-04-20 11:55 22.48762 54.36599 34803 ft 503 kts 87°
2026-04-20 11:56 22.48517 54.44159 34802 ft 503 kts 87°
2026-04-20 11:56 22.48265 54.51716 34806 ft 502 kts 87°
2026-04-20 11:57 22.48010 54.59261 34812 ft 501 kts 87°
2026-04-20 11:57 22.47755 54.66775 34806 ft 499 kts 87°
2026-04-20 11:58 22.47496 54.74265 34790 ft 498 kts 87°
2026-04-20 11:58 22.47232 54.81752 34800 ft 498 kts 87°
2026-04-20 11:59 22.46958 54.89230 34798 ft 497 kts 87°
2026-04-20 11:59 22.46683 54.96654 34796 ft 497 kts 87°
2026-04-20 12:00 22.46412 55.04116 34793 ft 496 kts 87°
2026-04-20 12:00 22.46145 55.11560 34802 ft 495 kts 87°
2026-04-20 12:01 22.45873 55.18995 34805 ft 494 kts 87°
2026-04-20 12:01 22.45595 55.26419 34795 ft 494 kts 87°
2026-04-20 12:02 22.45611 55.33789 34807 ft 484 kts 76°
2026-04-20 12:02 22.47404 55.40637 34808 ft 466 kts 57°
2026-04-20 12:03 22.50698 55.46533 34806 ft 456 kts 49°
2026-04-20 12:03 22.54197 55.52254 34802 ft 456 kts 49°
2026-04-20 12:04 22.57690 55.57983 34815 ft 455 kts 49°
2026-04-20 12:04 22.61173 55.63710 34809 ft 455 kts 49°
2026-04-20 12:05 22.64625 55.69392 34814 ft 454 kts 49°
2026-04-20 12:05 22.68104 55.75100 34814 ft 454 kts 49°
2026-04-20 12:06 22.71580 55.80814 34816 ft 454 kts 49°
2026-04-20 12:06 22.75043 55.86532 34823 ft 454 kts 49°
2026-04-20 12:07 22.78504 55.92249 34830 ft 454 kts 50°
2026-04-20 12:07 22.81965 55.97964 34824 ft 454 kts 50°
2026-04-20 12:08 22.85431 56.03687 34825 ft 454 kts 50°
2026-04-20 12:08 22.88893 56.09413 34826 ft 454 kts 50°
2026-04-20 12:09 22.92348 56.15143 34735 ft 452 kts 50°
2026-04-20 12:09 22.94058 56.17984 34331 ft 448 kts 50°
2026-04-20 12:09 22.95761 56.20808 33842 ft 447 kts 50°
2026-04-20 12:10 22.97459 56.23627 33316 ft 445 kts 51°
2026-04-20 12:10 22.99148 56.26428 32830 ft 442 kts 52°
2026-04-20 12:10 23.00823 56.29208 32356 ft 439 kts 52°
2026-04-20 12:10 23.02488 56.31978 31891 ft 437 kts 53°
2026-04-20 12:11 23.04111 56.34752 31434 ft 435 kts 55°
2026-04-20 12:11 23.05690 56.37549 30972 ft 433 kts 57°
2026-04-20 12:11 23.07241 56.40351 30515 ft 431 kts 57°
2026-04-20 12:11 23.08778 56.43142 30087 ft 430 kts 58°
2026-04-20 12:12 23.10318 56.45925 29613 ft 429 kts 58°
2026-04-20 12:12 23.11849 56.48684 29187 ft 425 kts 58°
2026-04-20 12:12 23.13374 56.51422 28765 ft 422 kts 58°
2026-04-20 12:12 23.14893 56.54139 28365 ft 419 kts 57°
2026-04-20 12:13 23.16404 56.56836 27962 ft 417 kts 57°
2026-04-20 12:13 23.17908 56.59525 27551 ft 414 kts 57°
2026-04-20 12:13 23.19399 56.62195 27139 ft 413 kts 57°
2026-04-20 12:13 23.20387 56.63960 26878 ft 412 kts 57°
2026-04-20 12:14 23.21876 56.66614 26454 ft 411 kts 57°
2026-04-20 12:14 23.23364 56.69265 26032 ft 410 kts 57°
2026-04-20 12:14 23.24848 56.71910 25595 ft 410 kts 56°
2026-04-20 12:14 23.26336 56.74563 25166 ft 410 kts 56°
2026-04-20 12:15 23.28295 56.78068 24587 ft 405 kts 56°
2026-04-20 12:15 23.29274 56.79824 24253 ft 398 kts 56°
2026-04-20 12:15 23.30685 56.82361 23834 ft 386 kts 56°
2026-04-20 12:15 23.32055 56.84827 23400 ft 375 kts 56°
2026-04-20 12:16 23.33378 56.87219 22933 ft 363 kts 58°
2026-04-20 12:16 23.34387 56.89666 22545 ft 358 kts 69°
2026-04-20 12:16 23.34983 56.92304 22122 ft 360 kts 77°
2026-04-20 12:16 23.35469 56.94969 21718 ft 359 kts 76°
2026-04-20 12:17 23.35959 56.97632 21295 ft 359 kts 76°
2026-04-20 12:17 23.36452 57.00294 20890 ft 359 kts 76°
2026-04-20 12:17 23.36945 57.02955 20476 ft 359 kts 76°
2026-04-20 12:17 23.37439 57.05616 20057 ft 359 kts 76°
2026-04-20 12:18 23.37947 57.08276 19663 ft 358 kts 75°
2026-04-20 12:18 23.38510 57.10914 19293 ft 357 kts 74°
2026-04-20 12:18 23.39104 57.13530 18918 ft 356 kts 74°
2026-04-20 12:18 23.39710 57.16138 18541 ft 354 kts 74°
2026-04-20 12:19 23.40312 57.18736 18161 ft 353 kts 74°
2026-04-20 12:19 23.40904 57.21331 17756 ft 352 kts 75°
2026-04-20 12:19 23.41484 57.23907 17389 ft 349 kts 74°
2026-04-20 12:19 23.42056 57.26468 17018 ft 346 kts 74°
2026-04-20 12:20 23.42620 57.29006 16648 ft 344 kts 75°
2026-04-20 12:20 23.43179 57.31529 16286 ft 341 kts 74°
2026-04-20 12:20 23.43735 57.34037 15919 ft 339 kts 74°
2026-04-20 12:20 23.44278 57.36493 15569 ft 336 kts 75°
2026-04-20 12:21 23.44824 57.38959 15210 ft 334 kts 74°
2026-04-20 12:21 23.45368 57.41409 14859 ft 332 kts 74°
2026-04-20 12:21 23.45908 57.43850 14507 ft 330 kts 74°
2026-04-20 12:21 23.46444 57.46274 14163 ft 327 kts 74°
2026-04-20 12:22 23.46966 57.48647 13818 ft 321 kts 74°
2026-04-20 12:22 23.47483 57.51006 13447 ft 320 kts 74°
2026-04-20 12:22 23.48000 57.53354 13127 ft 316 kts 73°
2026-04-20 12:22 23.48592 57.55640 12907 ft 312 kts 66°
2026-04-20 12:23 23.49414 57.57834 12519 ft 313 kts 65°
2026-04-20 12:23 23.50229 57.59983 12255 ft 300 kts 65°
2026-04-20 12:23 23.51021 57.62064 11739 ft 296 kts 65°
2026-04-20 12:23 23.51809 57.64144 11320 ft 298 kts 66°
2026-04-20 12:24 23.52602 57.66242 10914 ft 301 kts 66°
2026-04-20 12:24 23.53399 57.68359 10505 ft 304 kts 67°
2026-04-20 12:24 23.54202 57.70499 10102 ft 306 kts 67°
2026-04-20 12:24 23.55007 57.72644 9677 ft 303 kts 68°
2026-04-20 12:25 23.55793 57.74746 9258 ft 298 kts 68°
2026-04-20 12:25 23.56577 57.76844 8852 ft 300 kts 68°
2026-04-20 12:25 23.57303 57.78980 8435 ft 302 kts 76°
2026-04-20 12:25 23.57574 57.81244 8051 ft 302 kts 90°
2026-04-20 12:26 23.57590 57.83543 7637 ft 304 kts 90°
2026-04-20 12:26 23.57612 57.85823 7228 ft 296 kts 90°
2026-04-20 12:26 23.57637 57.88029 6835 ft 287 kts 90°
2026-04-20 12:26 23.57668 57.90176 6466 ft 280 kts 89°
2026-04-20 12:27 23.57801 57.92262 6089 ft 272 kts 84°
2026-04-20 12:27 23.58006 57.94284 5715 ft 264 kts 85°
2026-04-20 12:27 23.58180 57.96251 5367 ft 258 kts 86°
2026-04-20 12:27 23.58338 57.98189 4902 ft 257 kts 85°
2026-04-20 12:28 23.58495 58.00097 4512 ft 250 kts 85°
2026-04-20 12:28 23.58649 58.01973 4109 ft 245 kts 85°
2026-04-20 12:28 23.58800 58.03814 3789 ft 243 kts 85°
2026-04-20 12:28 23.58949 58.05631 3470 ft 236 kts 85°
2026-04-20 12:29 23.59092 58.07372 3186 ft 225 kts 85°
2026-04-20 12:29 23.59229 58.09036 2910 ft 216 kts 85°
2026-04-20 12:29 23.59359 58.10631 2645 ft 207 kts 85°
2026-04-20 12:29 23.59484 58.12167 2387 ft 201 kts 85°
2026-04-20 12:30 23.59607 58.13668 2153 ft 196 kts 85°
2026-04-20 12:30 23.59726 58.15133 1877 ft 190 kts 84°
2026-04-20 12:30 23.59838 58.16510 1638 ft 175 kts 84°
2026-04-20 12:30 23.59941 58.17784 1415 ft 162 kts 84°
2026-04-20 12:31 23.60035 58.18943 1238 ft 147 kts 84°
2026-04-20 12:31 23.60123 58.20028 1050 ft 141 kts 86°
2026-04-20 12:31 23.60209 58.21076 885 ft 137 kts 85°
2026-04-20 12:31 23.60293 58.22115 721 ft 138 kts 84°
2026-04-20 12:32 23.60377 58.23156 562 ft 138 kts 84°
2026-04-20 12:32 23.60462 58.24189 368 ft 137 kts 83°
2026-04-20 12:32 23.60544 58.25225 189 ft 136 kts 82°
2026-04-20 12:32 23.60631 58.26254 63 ft 136 kts 83°
2026-04-20 12:33 23.60720 58.27203 46 ft 109 kts 85°
2026-04-20 12:33 23.60764 58.27839 44 ft 58 kts 88°
2026-04-20 12:33 23.60772 58.28168 43 ft 30 kts 86°
2026-04-20 12:33 23.60753 58.28368 46 ft 26 kts 108°
2026-04-20 12:34 23.60679 58.28536 46 ft 22 kts 115°
2026-04-20 12:34 23.60652 58.28696 46 ft 15 kts 86°
2026-04-20 12:34 23.60648 58.28818 45 ft 17 kts 120°
2026-04-20 12:34 23.60539 58.28845 45 ft 14 kts 176°
2026-04-20 12:35 23.60466 58.28816 44 ft 12 kts 259°
2026-04-20 12:35 23.60463 58.28737 45 ft 6 kts 266°
2026-04-20 12:35 23.60462 58.28730 45 ft 0 kts 266°